Knoxville, IA

6:44 PM CDT on August 28, 2016 (GMT -0500)
Knoxville Municipal

Weather History for KOXV - April, 2012

Change the Weather History Date:

Monday, April 9, 2012

  Actual Average Record
Temperature  
Mean Temperature 50 °F -  
Max Temperature 64 °F 57 °F 84 °F (2011)
Min Temperature 37 °F 35 °F 19 °F (1982)
Degree Days  
Heating Degree Days 14    
Moisture  
Dew Point 11 °F    
Average Humidity 24    
Maximum Humidity 52    
Minimum Humidity 6    
Precipitation  
Precipitation 0.00 in - - ()
Sea Level Pressure  
Sea Level Pressure 30.14 in    
Wind  
Wind Speed 10 mph (WNW)    
Max Wind Speed 28 mph    
Max Gust Speed 34 mph    
Visibility 10 miles    
Events      
Averages and records for this station are not official NWS values.
T = Trace of Precipitation, MM = Missing Value Source: NWS Daily Summary

Daily Weather History Graph

Daily Weather History Graph

Search for Another Location

Airport or City:

Trip Planner

Search our weather history database for the weather conditions in past years. The results will help you decide how hot, cold, wet, or windy it might be!

Date:

Astronomy

Apr. 09, 2012 Rise Set
Actual Time 6:41 AM CDT 7:46 PM CDT
Civil Twilight 6:13 AM CDT 8:15 PM CDT
Nautical Twilight 5:39 AM CDT 8:48 PM CDT
Astronomical Twilight 5:04 AM CDT 9:24 PM CDT
Moon 11:45 PM CDT (4/9) 8:27 AM CDT (4/9)
Length of Visible Light 14h 01m
Length of Day
13h 05m
Waning Gibbous, 88% of the Moon is Illuminated
Apr 9
Waning Gibbous
Apr 13
Last Quarter
Apr 21
New
Apr 29
First Quarter
May 5
Full

Hourly Weather History & Observations

Time (CDT) Temp. Windchill Dew Point Humidity Pressure Visibility Wind Dir Wind Speed Gust Speed Precip Events Conditions
12:15 AM 51.8 °F - 26.6 °F 38% 30.14 in 10.0 mi NNW 9.2 mph - N/A   Scattered Clouds
12:35 AM 50.0 °F - 24.8 °F 37% 30.15 in 10.0 mi NNW 8.1 mph - N/A   Clear
12:55 AM 48.2 °F - 24.8 °F 40% 30.15 in 10.0 mi NW 5.8 mph - N/A   Clear
1:15 AM 48.2 °F - 21.2 °F 34% 30.16 in 10.0 mi WNW 5.8 mph - N/A   Clear
1:35 AM 44.6 °F 41.4 °F 19.4 °F 37% 30.16 in 10.0 mi WNW 5.8 mph - N/A   Clear
1:55 AM 44.6 °F 42.2 °F 19.4 °F 37% 30.16 in 10.0 mi WNW 4.6 mph - N/A   Clear
2:15 AM 44.6 °F 41.4 °F 15.8 °F 31% 30.16 in 10.0 mi WNW 5.8 mph - N/A   Clear
2:35 AM 46.4 °F 43.5 °F 14.0 °F 27% 30.15 in 10.0 mi West 5.8 mph - N/A   Clear
2:55 AM 42.8 °F 38.6 °F 17.6 °F 36% 30.15 in 10.0 mi West 6.9 mph - N/A   Clear
3:15 AM 46.4 °F 44.3 °F 14.0 °F 27% 30.15 in 10.0 mi West 4.6 mph - N/A   Clear
3:35 AM 41.0 °F 35.2 °F 19.4 °F 42% 30.15 in 10.0 mi West 9.2 mph - N/A   Clear
3:55 AM 39.2 °F 33.6 °F 19.4 °F 45% 30.15 in 10.0 mi West 8.1 mph - N/A   Clear
4:15 AM 39.2 °F 33.6 °F 21.2 °F 49% 30.15 in 10.0 mi WNW 8.1 mph - N/A   Clear
4:35 AM 39.2 °F 34.2 °F 19.4 °F 45% 30.15 in 10.0 mi WNW 6.9 mph - N/A   Clear
4:55 AM 37.4 °F 32.1 °F 19.4 °F 48% 30.15 in 10.0 mi WNW 6.9 mph - N/A   Clear
5:15 AM 39.2 °F 34.2 °F 19.4 °F 45% 30.15 in 10.0 mi West 6.9 mph - N/A   Clear
5:35 AM 37.4 °F 32.1 °F 19.4 °F 48% 30.15 in 10.0 mi West 6.9 mph - N/A   Clear
5:55 AM 37.4 °F 31.4 °F 19.4 °F 48% 30.16 in 10.0 mi West 8.1 mph - N/A   Clear
6:15 AM 37.4 °F 31.4 °F 19.4 °F 48% 30.16 in 10.0 mi West 8.1 mph - N/A   Clear
6:35 AM 37.4 °F 30.3 °F 21.2 °F 52% 30.16 in 10.0 mi West 10.4 mph - N/A   Clear
6:55 AM 37.4 °F 30.8 °F 21.2 °F 52% 30.17 in 10.0 mi West 9.2 mph - N/A   Clear
8:15 AM 44.6 °F 40.7 °F 19.4 °F 37% 30.18 in 10.0 mi WNW 6.9 mph - N/A   Clear
8:35 AM 46.4 °F 43.5 °F 19.4 °F 34% 30.15 in 10.0 mi North 5.8 mph - N/A   Clear
8:55 AM 48.2 °F - 21.2 °F 34% 30.16 in 10.0 mi West 5.8 mph - N/A   Clear
9:15 AM 50.0 °F - 21.2 °F 32% 30.17 in 10.0 mi NW 6.9 mph - N/A   Clear
9:35 AM 51.8 °F - 19.4 °F 28% 30.17 in 10.0 mi WNW 9.2 mph - N/A   Scattered Clouds
9:55 AM 53.6 °F - 15.8 °F 22% 30.18 in 10.0 mi NW 8.1 mph - N/A   Scattered Clouds
10:15 AM 57.2 °F - 15.8 °F 20% 30.18 in 10.0 mi West 12.7 mph 16.1 mph N/A   Scattered Clouds
10:35 AM 57.2 °F - 14.0 °F 18% 30.18 in 10.0 mi NW 9.2 mph - N/A   Clear
10:55 AM 57.2 °F - 15.8 °F 20% 30.18 in 10.0 mi WNW 10.4 mph - N/A   Clear
11:15 AM 59.0 °F - 12.2 °F 16% 30.18 in 10.0 mi WNW 13.8 mph - N/A   Clear
11:35 AM 59.0 °F - 12.2 °F 16% 30.19 in 10.0 mi West 13.8 mph 21.9 mph N/A   Clear
11:55 AM 60.8 °F - 10.4 °F 14% 30.18 in 10.0 mi West 18.4 mph 24.2 mph N/A   Clear
12:15 PM 60.8 °F - 10.4 °F 14% 30.17 in 10.0 mi West 13.8 mph 21.9 mph N/A   Clear
12:35 PM 62.6 °F - 10.4 °F 13% 30.16 in 10.0 mi WNW 20.7 mph 31.1 mph N/A   Clear
12:55 PM 62.6 °F - 15.8 °F 16% 30.15 in 10.0 mi WNW 13.8 mph 20.7 mph N/A   Clear
1:15 PM 62.6 °F - 10.4 °F 13% 30.15 in 10.0 mi WNW 17.3 mph 25.3 mph N/A   Clear
1:35 PM 62.6 °F - 3.2 °F 9% 30.15 in 10.0 mi WNW 25.3 mph 34.5 mph N/A   Clear
1:55 PM 64.4 °F - 6.8 °F 10% 30.13 in 10.0 mi WNW 17.3 mph 20.7 mph N/A   Clear
2:15 PM 64.4 °F - 6.8 °F 10% 30.13 in 10.0 mi WNW 20.7 mph 29.9 mph N/A   Clear
2:35 PM 64.4 °F - 6.8 °F 10% 30.12 in 10.0 mi NW 17.3 mph 27.6 mph N/A   Clear
2:55 PM 64.4 °F - 3.2 °F 9% 30.12 in 10.0 mi WNW 23.0 mph 28.8 mph N/A   Clear
3:15 PM 64.4 °F - 3.2 °F 9% 30.11 in 10.0 mi NW 18.4 mph 28.8 mph N/A   Clear
3:35 PM 64.4 °F - 1.4 °F 8% 30.10 in 10.0 mi WNW 18.4 mph 28.8 mph N/A   Clear
4:15 PM 64.4 °F - 3.2 °F 9% 30.09 in 10.0 mi WNW 19.6 mph 29.9 mph N/A   Clear
4:35 PM 64.4 °F - 3.2 °F 9% 30.09 in 10.0 mi NW 20.7 mph 33.4 mph N/A   Clear
4:55 PM 64.4 °F - -0.4 °F 7% 30.08 in 10.0 mi WNW 20.7 mph 33.4 mph N/A   Clear
5:15 PM 64.4 °F - 1.4 °F 8% 30.08 in 10.0 mi WNW 18.4 mph 27.6 mph N/A   Clear
5:35 PM 64.4 °F - 1.4 °F 8% 30.08 in 10.0 mi WNW 18.4 mph 25.3 mph N/A   Clear
5:55 PM 64.4 °F - 1.4 °F 8% 30.07 in 10.0 mi NW 13.8 mph 27.6 mph N/A   Clear
6:15 PM 62.6 °F - -5.8 °F 6% 30.07 in 10.0 mi WNW 27.6 mph 32.2 mph N/A   Clear
6:35 PM 62.6 °F - 1.4 °F 9% 30.08 in 10.0 mi NW 13.8 mph 28.8 mph N/A   Clear
6:55 PM 60.8 °F - -2.2 °F 8% 30.08 in 10.0 mi NW 16.1 mph 25.3 mph N/A   Clear
7:15 PM 57.2 °F - -2.2 °F 9% 30.08 in 10.0 mi NW 18.4 mph 26.5 mph N/A   Clear
7:35 PM 55.4 °F - 1.4 °F 11% 30.09 in 10.0 mi NW 13.8 mph - N/A   Clear
7:55 PM 55.4 °F - -5.8 °F 8% 30.09 in 10.0 mi NW 11.5 mph 18.4 mph N/A   Clear
8:35 PM 51.8 °F - -0.4 °F 12% 30.11 in 10.0 mi NW 11.5 mph - N/A   Clear
8:55 PM 51.8 °F - -2.2 °F 11% 30.11 in 10.0 mi NNW 11.5 mph - N/A   Clear
9:15 PM 51.8 °F - 1.4 °F 13% 30.12 in 10.0 mi NNW 9.2 mph - N/A   Clear
9:35 PM 48.2 °F - 3.2 °F 16% 30.13 in 10.0 mi NW 9.2 mph - N/A   Clear
9:55 PM 48.2 °F - 6.8 °F 19% 30.14 in 10.0 mi NNW 8.1 mph - N/A   Clear
10:15 PM 46.4 °F 42.9 °F 10.4 °F 23% 30.14 in 10.0 mi NNW 6.9 mph - N/A   Clear
10:35 PM 44.6 °F 39.7 °F 10.4 °F 25% 30.15 in 10.0 mi NNW 9.2 mph - N/A   Clear
10:55 PM 46.4 °F 41.5 °F 6.8 °F 20% 30.16 in 10.0 mi NNW 10.4 mph - N/A   Clear
11:15 PM 46.4 °F 41.1 °F 8.6 °F 22% 30.16 in 10.0 mi NNW 11.5 mph - N/A   Clear
11:35 PM 46.4 °F 40.4 °F 8.6 °F 22% 30.17 in 10.0 mi North 13.8 mph - N/A   Clear
11:55 PM 44.6 °F 39.2 °F 10.4 °F 25% 30.17 in 10.0 mi North 10.4 mph - N/A   Clear